Terug naar catalogus

WEILI KONGJIAN 05-02

ActiefNavigatieLEO
NORAD 69583·PAYLOAD·🇨🇳 China
Deze satellietnaam is nog niet bevestigd door officiële bronnen.

Gelanceerd Jun 17, 2026 vanaf Jiuquan Satellite Launch Center

Loading…

Volgende Passages (komende 24 uur)

TLE

VersSource: Space-Track

Epoch: Sep 14, 2026, 12:43 UTC

1 69583U 26138B   26257.53034844  .00000057  00000-0  12131-3 0  9997
2 69583  55.1416 311.7997 0006709 303.2948  56.7380 14.08169671 12660

Volg WEILI KONGJIAN 05-02 in realtime met AllMySat

Download on the App Store